Location: Praha
(50.0830°N, 14.4670°E)
Time: 04:01:11
(UTC+02:00)

ISS - Pass Details

Date: 14 May 2024
Orbit: 409 x 414 km, 51.6° (Epoch: 23 May)

Event Time Altitude Azimuth Distance (km) Brightness Sun altitude
Rises 21:54:41 0° 249° (WSW) 2,346 0.4 -10.0°
Reaches altitude 10° 21:56:47 10° 248° (WSW) 1,484 -0.7 -10.2°
Maximum altitude 22:00:06 80° 162° (SSE) 424 -3.9 -10.6°
Drops below altitude 10° 22:03:26 10° 75° (ENE) 1,485 -1.2 -11.0°
Sets 22:05:32 0° 74° (ENE) 2,347 -0.2 -11.2°
